Tracking 30115 objects as of 9-Feb-2025
HD Live streaming from Space Station
objects crossing your sky now

NOAA 17 DEB

Track NOAA 17 DEB now!
10-day predictions


NORAD ID: 48184
Int'l Code: 2002-032AA
Perigee: 747.8 km
Apogee: 766.9 km
Inclination: 98.8 °
Period: 99.8 minutes
Semi major axis: 7128 km
RCS: Unknown
Launch date: June 24, 2002
Source: United States (US)
Launch site: AIR FORCE WESTERN TEST RANGE (AFWTR)

Note: This is SATELLITE DEBRIS
Your satellite tracking list
Your tracking list is empty




NASA's NSSDC Master Catalog

Two Line Element Set (TLE):
1 48184U 02032Z   25040.36134798  .00011433  00000-0  34530-2 0  9993
2 48184  98.8041  14.5787 0013392 307.5553  52.4418 14.42521544201464
Source of the keplerian elements: AFSPC